www.pogodaiklimat.ru

Погода и климат >> Архив погоды >> Канада >> Нунавут >> Талойоак


ПОГОДА в Талойоаке

  • Прогноз погоды в Талойоаке
  • Монитор погоды в Талойоаке

АРХИВ ПОГОДЫ в Талойоаке

Время (UTC), дата Ветер
(напр.,м/с)
 
Видим.   Явления Облачность Т
(С)
Тd
(С)
f
(%)
Тe
(С)
Тes
(С)
Комфортность P
(гПа)
Po
(гПа)
Тmin
(С)
Tmax
(С)
R
(мм)
R24
(мм)
S
(см)
06 17.02 Ю 1 24 км ледяные иглы {снег} ясно -37.4 -41.9 63 -42 -42 опасность
обморожения
1030.9 1027.0 -38.0 -30.4 0.0 29
09 17.02 Ю 2 24 км ясно -37.8 -42.3 63 -45 -45 опасность
обморожения
1031.1 1027.1
12 17.02 ЮВ 1 24 км слаб. снег ясно -38.5 -43.0 62 -44 -44 опасность
обморожения
1031.3 1027.3 -38.8 -30.4 0.0 29
15 17.02 ЮЗ 2 24 км 1/1 1000 м
[]
-38.9 -43.5 62 -46 -46 опасность
обморожения
1030.9 1026.9
18 17.02 Ю 3 24 км ледяные иглы {снег} ясно -38.6 -43.1 62 -49 -49 опасность
обморожения
1030.3 1026.3 -39.5 -37.4 29
21 17.02 Ю 3 24 км ясно -38.2 -42.8 62 -50 -50 опасность
обморожения
1029.2 1025.2
00 18.02 Ю 2 24 км {снег} ясно -39.6 -44.2 61 -49 -49 опасность
обморожения
1028.1 1024.1 -39.8 -37.7
03 18.02 Ю 2 24 км ясно -40.3 -45.0 60 -50 -50 опасность
обморожения
1026.8 1022.8
06 18.02 Ю 3 24 км слаб. снег ясно -40.8 -45.5 60 -52 -52 опасность
обморожения
1025.1 1021.1 -41.0 -37.4 0.0 29
09 18.02 Ю 4 24 км ясно -40.9 -45.5 61 -55 -55 опасность
обморожения
1023.2 1019.2
12 18.02 Ю 5 24 км ледяные иглы {снег} ясно -40.7 -45.4 60 -55 -55 опасность
обморожения
1021.5 1017.5 -41.4 -37.4 0.0 29
15 18.02 Ю 3 24 км ясно -41.3 -46.0 60 -53 -53 опасность
обморожения
1019.5 1015.5
18 18.02 Ю 4 24 км в посл. час снег ясно -40.0 -44.7 61 -54 -53 опасность
обморожения
1018.3 1014.3 -41.4 -40.0 29
21 18.02 Ю 5 16 км ясно -40.0 -44.7 61 -55 -54 опасность
обморожения
1016.9 1013.0
00 19.02 Ю 4 24 км ледяные иглы {снег} ясно -40.1 -44.8 61 -54 -54 опасность
обморожения
1015.5 1011.6 -41.4 -39.1
03 19.02 Ю 5 24 км ясно -39.9 -44.6 61 -54 -54 опасность
обморожения
1014.2 1010.3
06 19.02 Ю 3 24 км ледяные иглы {снег} ясно -39.9 -44.5 61 -52 -52 опасность
обморожения
1013.1 1009.2 -41.4 -39.1 0.0 29
09 19.02 Ю 5 24 км ясно -39.9 -44.5 61 -55 -55 опасность
обморожения
1012.1 1008.2
12 19.02 Ю 4 24 км ледяные иглы {снег} 3/0 2000 м
[Ac trans]
-39.5 -44.1 61 -53 -53 опасность
обморожения
1011.5 1007.6 -40.5 -39.1 0.0 29
15 19.02 Ю 3 24 км 4/0
[]
-39.6 -44.2 61 -51 -51 опасность
обморожения
1010.9 1007.0
18 19.02 Ю 4 24 км ледяные иглы {снег} 1/0
[Ac trans Ci fib]
-36.4 -41.0 62 -48 -48 опасность
обморожения
1010.6 1006.7 -40.5 -36.4 29
21 19.02 Ю 2 24 км ясно -35.2 -39.7 63 -44 -43 опасность
обморожения
1011.0 1007.1
00 20.02 СЗ 7 24 км ледяные иглы {снег} ясно -29.6 -33.6 68 -44 -44 опасность
обморожения
1011.2 1007.3 -40.5 -29.2
03 20.02 СЗ 9 24 км 4/0
[]
-27.8 -31.7 69 -43 -43 опасность
обморожения
1011.1 1007.2
06 20.02 СЗ 6 24 км ледяные иглы {снег} 3/0 2000 м
[Ac As]
-28.9 -32.9 68 -42 -42 опасность
обморожения
1012.0 1008.1 -40.5 -27.4 0.0 41
09 20.02 СЗ 9 24 км ясно -28.3 -32.2 69 -44 -44 опасность
обморожения
1012.1 1008.3
12 20.02 СЗ 7 24 км ледяные иглы {снег} 3/0 2000 м
[Ac As Ci fib]
-27.7 -31.6 69 -42 -42 опасность
обморожения
1012.6 1008.8 -29.8 -27.4 0.0 29
15 20.02 СЗ 10 24 км 4/0 2000 м
[]
-25.9 -29.6 71 -42 -42 опасность
обморожения
1012.8 1009.0
18 20.02 С 9 8000 м метель {снег} 6/4 600 м
[Cu Sc Ac inh]
-24.1 -27.7 72 -39 -39 опасность
обморожения
1013.6 1009.8 -36.4 -23.1 0.0 29
21 20.02 СЗ 4 24 км 8/8 300 м
[]
-25.4 -29.1 71 -36 -36 опасность
обморожения
1014.8 1011.0
00 21.02 СЗ 9 9000 м слаб. снег 9/9 1000 м
[Cu Sc]
-24.8 -28.4 72 -40 -40 опасность
обморожения
1014.1 1010.3 -29.5 -23.1 0.0 29
03 21.02 СЗ 12 4000 м 8/8 1500 м
[]
-23.2 -26.6 74 -39 -39 опасность
обморожения
1013.5 1009.7
06 21.02 СЗ 12 8000 м ледяные иглы {снег} 9/8 600 м
[Sc Ac trans]
-22.5 -25.8 74 -38 -38 опасность
обморожения
1013.1 1009.3 -29.5 -22.5 0.0 182
09 21.02 Ю 3 12 км 10/10 600 м
[]
-25.9 -29.6 71 -34 -34 опасность
обморожения
1013.4 1009.6
12 21.02 ЮВ 2 24 км слаб. снег 9/9 200 м
[Sc]
-24.1 -27.6 73 -29 -29 1012.6 1008.8 -26.8 -22.5 0.0 29
15 21.02 ЮВ 3 3200 м 8/8 600 м
[]
-25.1 -28.7 72 -33 -33 опасность
обморожения
1011.1 1007.3
18 21.02 4800 м слаб. снег н/о -24.4 -28.0 72 -31 -31 опасность
обморожения
1010.2 1006.4 -26.8 -20.3 0.2 29
21 21.02 СЗ 2 9000 м 10/10 600 м
[]
-23.0 -26.4 74 -28 -28 1009.5 1005.7
00 22.02 8000 м слаб. снег н/о -23.4 -26.9 73 -29 -29 1009.1 1005.3 -26.8 -20.9 0.2 29
03 22.02 ЮЗ 5 4000 м 8/8 300 м
[]
-25.0 -28.5 73 -36 -36 опасность
обморожения
1008.2 1004.4
06 22.02 3200 м слаб. снег н/о -25.7 -29.3 72 -40 -40 опасность
обморожения
1007.3 1003.5 -26.8 -20.3 0.0 71
09 22.02 ЮЗ 8 3600 м 8/8 300 м
[]
-25.7 -29.3 72 -40 -40 опасность
обморожения
1006.6 1002.8
12 22.02 1600 м слаб. снег н/о -26.7 -30.4 71 -42 -42 опасность
обморожения
1005.5 1001.7 -26.7 -20.3 0.2 29
15 22.02 Ю 11 2000 м 8/8 300 м
[]
-28.4 -32.2 70 -46 -46 опасность
обморожения
1004.8 1001.0
18 22.02 Ю 5 2400 м слаб. снег 8/8 300 м
[Cu Sc]
-25.8 -29.4 72 -37 -37 опасность
обморожения
1005.1 1001.3 -28.4 -25.6 0.2 29
21 22.02 ЮЗ 4 24 км 9/9 300 м
[]
-26.3 -30.0 71 -37 -37 опасность
обморожения
1006.2 1002.4
00 23.02 СЗ 4 24 км ледяные иглы {снег} 3/0
[As trans Ci sp]
-29.5 -33.4 69 -40 -40 опасность
обморожения
1008.2 1004.4 -29.9 -25.7 0.0 29
03 23.02 СЗ 5 24 км ясно -31.9 -36.0 67 -44 -44 опасность
обморожения
1009.6 1005.8
06 23.02 СЗ 9 24 км ледяные иглы {снег} ясно -33.5 -37.6 66 -51 -51 опасность
обморожения
1011.3 1007.5 -33.5 -25.6 151
09 23.02 СЗ 7 24 км 1/0
[]
-34.4 -38.6 65 -50 -50 опасность
обморожения
1012.3 1008.5
12 23.02 С 6 24 км ледяные иглы {снег} ясно -36.0 -40.3 64 -51 -51 опасность
обморожения
1014.2 1010.3 -36.2 -25.6 29
15 23.02 В 1 24 км ясно -35.8 -40.1 64 -41 -41 опасность
обморожения
1016.0 1012.1
18 23.02 ЮЗ 2 24 км {снег} ясно -35.3 -39.7 64 -42 -41 опасность
обморожения
1017.0 1013.1 -37.3 -33.5 29
21 23.02 Ю 3 24 км ясно -35.1 -39.5 64 -45 -45 опасность
обморожения
1017.9 1014.0
00 24.02 Ю 2 24 км ясно -36.0 -40.3 64 -43 -43 опасность
обморожения
1019.4 1015.5 -37.3 -34.5 29
03 24.02 Ю 2 24 км ясно -37.6 -42.0 63 -47 -47 опасность
обморожения
1019.7 1015.8

 

Местоположение метеостанции Талойоак (Нунавут, Канада): широта 69.55 долгота -93.58 высота над уровнем моря 28 м.

В архиве по умолчанию представлена погода в Талойоаке за последнюю неделю. Архивные данные за месяц целиком и за предыдущие месяцы, начиная с января 2011 года, Вы можете получить, выбрав интересующий диапазон дат из раскрывающегося списка и нажав кнопку "Ввод!".


*Определитесь, кто Вы:
робот инопланетянин человек

Внимание! Время в таблицах - всемирное. Для получения местного времени необходимо прибавить поправку, которая равна -6 ч.

Смотрите также архив погоды в соседних городах и на ближайших метеорологических станциях:

Погода в Шеперд-Бее (Нунавут, Канада) (81 км)
Погода в Джойа Хейвен (Нунавут, Канада) (136 км)
Погода в Кугааруке (Нунавут, Канада) (188 км)
Погода в Кам Фор (Нунавут, Канада) (198 км)
Погода на Острове Хат (Нунавут, Канада) (291 км)
Погода в Глеичене (Альберта, Канада) (405 км)
Погода в Вейджер Бэй (Нунавут, Канада) (444 км)
Погода в Кеймбридж-Бее (Нунавут, Канада) (454 км)
Погода в Кембридж Бэй (Нунавут, Канада) (454 км)
Погода в Арктик Бей (Нунавут, Канада) (490 км)

Пояснения к столбцам:

Ветер - указаны скорость ветра в м/с - средняя за 10 мин, порывы в срок и между сроками (в фигурных скобках) и направление, откуда дует ветер: С - северный, СВ - северо-восточный, В - восточный, ЮВ - юго-восточный, Ю - южный, ЮЗ - юго-западный, З - западный, СЗ - северо-западный.
Видимость - горизонтальная дальность видимости в метрах или километрах. При видимости от 1 до 10 км при отсутствии осадков обычно наблюдается дымка, при ухудшении видимости до 1 км и менее - туман. В сухую погоду видимость может ухудшаться дымом, пылью или мглою.
Явления - указаны атмосферные явления, наблюдавшиеся в срок или в последний час перед сроком; фигурными скобками обозначены явления, наблюдавшиеся между сроками (за 1-3 часа до срока); квадратными скобками обозначены град или гололедные отложения с указанием их диаметра в мм.
Облачность - указаны через наклонную черту общая и нижняя облачность в баллах и высота нижней границы облаков в метрах; квадратными скобками обозначены формы облаков: Ci - перистые, Cs - перисто-слоистые, Cc - перисто-кучевые, Ac - высококучевые, As - высокослоистые, Sc - слоисто-кучевые, Ns - слоисто-дождевые, Cu - кучевые, Cb - кучево-дождевые. Подробнее классификацию облаков см. в Атласе облаков (PDF).
T - Температура воздуха - температура, измеренная на высоте 2 м над землей.
Td - Температура точки росы - температура, при понижении до которой содержащийся в воздухе водяной пар достигнет насыщения.
f - Относительная влажность воздуха - влажноcть воздуха, измеренная на высоте 2 м над землей.
Te - Эффективная температура - температура, которую ощущает одетый по сезону человек в тени. Характеристика душности погоды. При расчете учитывается влияние влажности воздуха и скорости ветра на теплоощущения человека.
Tes - Эффективная температура на солнце - температура, которую ощущает человек, с поправкой на солнечный нагрев. Характеристика знойности погоды. Зависит от высоты солнца над горизонтом, облачности и скорости ветра. Ночью, в пасмурную погоду, а также при ветре 12 м/с и более поправка равна нулю.
P - Атмосферное давление - приведенное к уровню моря атмосферное давление.
Po - Атмосферное давление - измеренное на уровне метеостанции атмосферное давление.
Tmin - Минимальная температура - минимум температуры воздуха на высоте 2 м над землей.
Tmax - Максимальная температура - максимум температуры воздуха на высоте 2 м над землей.
R - Количество осадков - Количество выпавших осадков за период времени, мм. При наведении курсора мыши на число - период времени, за который выпало указанное количество осадков.
R24 - Количество осадков - Количество выпавших осадков за 24 часа, мм.
S - Снежный покров - Высота снежного покрова, см. При наведении курсора мыши на число - состояние снежного покрова и степень покрытия местности в баллах.